GFSFLT2_sfc_rhum_132.txt.gz
RH
94 94 91 92 93 94 97 98 97 97 96 96 96 96 96 94 94 92 91 92 92 91 92 92 92 93 94 96 98 94 96 93
94 96 96 96 96 94 96 98 98 98 98 98 98 98 96 95 95 93 92 92 92 92 93 93 93 94 95 98 96 95 96 94
73 96 97 97 96 94 94 95 97 99 98 98 99 99 98 96 95 94 94 94 94 93 94 95 95 95 96 95 94 98 95 98
31 53 87 96 88 95 96 93 98 97 98 97 98 99 98 94 96 96 96 96 96 94 95 96 97 99 99 95 98 96 96 97
52 48 57 78 96 98 99 99 99 99 99 96 97 97 99 99 99 97 99 97 99 98 98 95 99 99 99 99 97 95 98 98
50 55 55 54 54 93 99 99 98 98 98 99 99 99 99 99 99 99 99 98 99 98 93 97 98 98 97 98 96 95 99 99
52 52 56 57 58 56 86 98 98 95 96 97 98 98 98 98 98 99 98 98 99 99 99 99 98 97 97 95 93 90 95 98
53 54 53 58 61 62 62 81 96 97 96 91 96 95 96 98 98 98 98 98 98 98 98 98 98 97 96 94 87 80 90 94
55 53 56 60 62 64 65 72 86 96 94 93 92 93 94 94 96 97 96 95 97 97 98 98 98 94 91 96 80 78 85 94
50 50 58 61 64 69 69 77 73 87 94 88 91 90 89 92 92 93 92 94 94 95 95 96 94 94 94 90 82 75 81 88
50 51 56 62 65 68 70 68 81 89 92 94 82 91 89 88 89 90 93 93 93 92 94 92 95 95 91 94 90 79 80 84
52 52 56 60 68 67 67 70 84 84 85 92 83 81 88 92 88 90 93 94 95 92 92 93 92 88 78 86 97 91 91 90
56 60 59 61 65 72 73 78 79 82 85 79 84 81 77 89 91 93 90 92 90 90 93 93 95 96 90 91 88 89 93 92
64 63 62 64 66 69 74 76 79 81 81 80 79 87 82 81 87 92 90 89 91 91 90 96 93 94 93 91 96 91 91 93
68 70 70 68 69 72 73 74 83 86 84 87 85 86 92 82 89 92 92 90 92 90 85 85 91 98 90 93 98 97 97 95
74 69 68 67 68 72 78 80 84 82 88 88 86 78 84 87 84 88 93 91 91 89 83 84 82 89 98 92 89 90 96 98
71 72 71 73 76 80 81 85 77 72 78 88 86 84 80 81 88 93 88 92 90 88 88 84 84 83 88 94 92 97 95 96
74 81 81 78 88 93 88 89 81 78 80 90 86 87 87 87 80 90 91 90 92 90 88 86 87 85 89 91 82 86 98 98
83 86 90 80 91 95 95 91 91 93 90 87 92 89 89 91 92 95 95 90 90 89 86 82 84 86 92 91 86 83 94 95
93 96 95 91 95 96 94 89 93 94 90 93 90 92 95 95 91 91 94 90 84 88 89 85 83 84 84 91 89 84 88 92

GFSFLT2_sfc_rhum_135.txt.gz
RH
90 96 94 94 95 95 96 97 97 96 96 96 95 96 96 94 93 93 93 93 92 92 92 92 92 92 94 96 97 92 95 96
52 58 73 95 97 96 96 98 98 99 98 98 98 98 97 96 95 94 92 93 93 92 93 93 93 95 95 98 97 95 96 92
54 60 61 63 74 92 94 95 97 98 98 99 99 99 98 97 96 96 94 94 94 93 94 94 95 95 96 97 97 98 96 97
54 57 72 74 54 68 88 95 95 98 92 94 92 91 99 96 97 97 95 95 95 94 95 95 97 99 99 96 99 98 98 98
54 55 60 71 70 81 84 94 99 97 96 95 93 92 96 99 99 98 98 97 99 97 98 98 97 99 99 99 98 97 98 98
53 54 56 58 61 76 89 89 89 97 97 98 96 96 94 93 94 96 96 96 97 98 97 91 98 98 98 98 97 98 99 99
54 52 56 56 57 61 71 84 89 88 95 94 92 93 92 91 90 93 91 91 94 95 89 92 99 99 98 98 97 96 96 99
52 52 54 57 58 62 63 65 85 90 89 93 90 85 93 91 89 91 90 90 90 91 91 98 98 98 98 98 96 94 96 97
53 52 53 56 61 63 64 65 76 86 88 89 91 88 84 94 90 91 87 89 91 96 99 99 99 98 97 98 97 92 90 95
52 49 56 58 59 62 63 66 68 74 86 87 89 91 83 84 91 89 88 90 92 96 98 99 98 98 97 97 98 97 88 88
57 57 61 61 61 63 65 65 69 77 86 88 82 89 87 85 92 88 92 95 95 96 98 96 98 98 95 98 98 93 88 87
60 61 63 64 66 65 65 67 74 78 80 84 81 88 83 88 90 92 96 96 96 97 96 96 95 93 87 96 97 96 92 91
65 67 69 70 73 76 75 77 74 77 78 76 80 80 84 87 90 92 94 95 92 95 97 97 98 94 96 98 98 98 98 96
69 71 69 66 68 70 72 73 72 77 79 81 82 83 86 92 93 92 96 94 94 97 95 96 95 96 93 93 97 94 97 97
72 69 67 68 66 69 72 71 71 75 77 83 83 85 85 84 89 94 91 94 94 95 94 93 95 98 93 93 98 96 97 97
66 67 68 65 70 73 80 84 84 77 75 74 77 83 87 83 84 91 95 96 93 94 93 92 92 93 99 95 89 92 96 97
68 69 69 70 71 76 85 90 84 77 73 76 74 80 83 84 85 90 91 95 98 94 95 95 92 89 87 96 93 95 93 96
71 76 80 77 79 84 94 96 95 90 83 76 74 83 86 88 89 90 89 93 93 95 94 94 92 90 90 85 80 79 96 97
84 84 80 79 86 89 93 96 96 93 90 88 87 80 87 91 94 96 96 94 92 93 95 94 94 92 90 88 82 77 93 95
93 95 82 85 87 90 95 96 95 94 92 93 91 88 90 88 96 95 94 94 96 96 96 96 94 94 94 93 88 82 96 95

GFSFLT2_sfc_rhum_138.txt.gz
RH
56 57 61 65 74 86 94 96 96 97 96 95 95 96 96 93 92 93 94 94 92 93 93 92 91 93 94 97 97 92 92 94
53 55 64 63 64 68 77 93 96 97 98 98 97 98 97 96 95 94 94 95 93 93 94 93 93 94 95 97 96 94 92 93
53 56 60 63 55 65 73 71 91 95 98 99 100 99 98 97 96 96 95 95 94 94 94 94 94 95 96 97 97 97 94 95
55 55 66 64 49 66 77 72 78 88 96 94 99 96 94 98 97 97 96 95 96 95 95 95 96 99 99 97 98 97 97 96
55 54 59 64 61 66 72 85 86 82 88 94 98 95 97 96 99 99 99 97 99 98 98 99 99 99 99 100 98 97 98 97
54 53 55 55 60 64 81 81 82 86 88 81 96 98 97 96 95 94 96 96 97 98 98 95 91 99 99 98 98 98 98 98
54 53 54 53 56 62 62 73 83 87 89 84 88 95 97 95 95 96 94 92 94 95 94 88 92 98 98 97 97 97 96 97
54 55 54 57 59 59 61 64 74 84 87 86 87 92 96 95 95 95 95 92 92 91 89 88 91 98 99 98 95 96 95 96
58 57 58 62 62 61 62 63 68 78 80 80 83 88 85 94 94 96 94 91 91 94 94 93 93 97 98 98 97 95 94 96
59 56 63 64 66 67 65 65 67 68 78 84 84 84 82 83 94 93 95 94 94 94 95 96 94 96 98 98 98 97 93 96
63 63 67 69 70 71 70 69 70 70 76 82 80 82 81 88 89 92 92 96 95 92 94 94 93 94 97 98 98 98 95 90
65 66 70 70 71 70 70 72 72 72 73 78 78 82 80 87 85 87 93 92 95 95 93 95 92 91 94 96 98 98 97 95
69 71 69 70 72 71 71 74 72 70 70 74 78 82 83 84 84 88 92 86 92 92 94 93 96 96 98 99 99 99 98 97
69 67 67 64 64 67 68 69 69 66 65 68 71 79 84 88 91 90 89 91 90 96 94 94 94 96 94 94 99 99 98 98
66 67 66 67 66 67 71 69 72 73 67 67 71 73 80 86 88 90 87 90 88 93 95 91 92 96 93 94 99 91 99 98
66 66 67 67 68 72 78 83 84 80 84 72 70 68 71 73 81 88 88 90 96 90 93 94 91 93 96 93 87 90 95 100
69 68 70 68 68 71 85 90 88 87 90 89 76 75 69 74 83 86 90 93 93 94 96 98 95 89 95 93 94 94 92 93
70 72 73 72 76 74 88 93 94 95 90 89 83 81 80 74 80 87 92 94 94 94 94 89 94 92 91 90 83 82 95 94
79 79 80 75 80 82 82 86 91 90 93 92 91 87 86 81 77 91 92 93 92 91 94 91 95 95 93 91 83 71 90 90
88 83 86 82 83 86 87 85 93 90 93 94 92 92 90 87 84 91 88 94 93 95 95 92 89 95 97 93 90 83 86 90

GFSFLT2_sfc_rhum_144.txt.gz
RH
48 45 45 51 53 60 64 64 65 69 84 92 94 95 95 92 90 91 92 91 91 91 92 92 90 91 92 95 92 90 48 42
49 48 45 44 41 52 59 57 58 60 61 69 77 96 96 96 93 90 91 93 93 92 93 93 92 92 93 94 95 90 52 43
47 49 48 48 36 40 49 50 50 56 54 63 60 67 68 56 64 80 89 89 95 93 92 94 93 93 94 95 96 52 48 42
37 47 51 47 30 45 42 37 35 41 46 52 46 49 64 76 77 93 95 95 93 96 94 95 92 50 55 87 60 49 47 43
37 44 50 50 46 38 36 35 36 38 46 54 51 44 43 62 74 80 66 78 63 77 83 67 55 50 42 47 50 57 44 42
39 41 48 52 45 38 40 38 39 36 42 52 52 42 42 44 44 68 75 78 62 57 65 71 56 53 50 48 51 51 44 41
44 44 48 48 50 43 44 44 39 46 41 46 49 48 48 44 42 46 72 81 81 72 62 67 69 61 58 54 51 53 50 41
46 47 50 50 50 53 49 43 44 44 42 44 58 54 53 48 45 40 44 63 74 74 82 68 73 67 63 58 52 48 51 51
48 49 52 54 53 50 46 42 46 44 42 52 54 57 57 57 49 44 39 44 62 84 81 88 84 76 70 62 58 51 48 54
46 44 50 55 55 50 46 43 46 42 43 46 54 57 60 59 50 47 43 44 63 72 79 89 93 86 82 66 64 49 51 53
45 48 50 55 54 49 47 50 43 43 43 43 50 56 58 57 53 50 54 48 46 66 80 86 92 92 83 80 74 54 47 45
45 46 52 54 47 46 42 43 43 44 43 43 52 54 58 57 54 58 57 52 49 51 73 75 86 90 84 86 79 66 47 55
46 49 51 48 44 47 48 49 47 48 45 52 54 54 60 62 62 65 64 59 56 53 54 79 85 81 95 96 94 83 69 59
47 47 48 47 44 47 49 52 51 50 50 54 58 63 73 71 70 64 66 66 66 67 63 68 74 78 88 92 98 99 87 72
47 48 48 50 54 45 48 48 50 52 54 55 57 63 67 74 75 77 72 69 76 71 70 81 81 78 82 89 96 91 82 77
46 49 48 48 54 53 60 57 65 60 62 57 61 66 69 73 77 78 77 74 72 76 72 66 79 88 80 88 95 98 70 74
46 49 48 50 54 58 58 65 62 65 64 66 64 64 68 71 77 79 81 79 75 74 74 78 70 80 77 68 89 92 95 90
46 47 48 51 55 58 64 72 72 76 70 70 64 62 68 76 78 82 83 84 81 76 72 67 76 76 78 73 70 70 79 91
50 48 49 52 57 61 65 71 75 81 81 82 78 74 74 81 84 87 87 84 84 78 73 69 80 89 86 80 82 76 71 78
60 52 52 53 58 64 64 66 76 77 82 84 83 84 84 85 86 86 87 88 86 79 79 77 79 86 90 83 82 78 73 76

GFSFLT2_sfc_rhum_147.txt.gz
RH
46 43 44 54 60 59 59 58 58 59 61 65 66 77 92 93 90 88 87 86 89 89 91 92 92 90 90 92 93 91 61 43
47 46 43 43 38 59 60 60 61 63 63 68 69 73 85 93 90 88 89 88 88 90 92 93 93 91 92 93 96 91 61 48
45 48 47 48 34 38 49 52 56 57 51 60 52 37 44 54 76 89 85 88 88 91 93 93 95 93 93 94 96 60 51 46
36 45 50 47 29 43 39 34 32 37 42 46 46 47 42 40 65 88 93 94 92 91 92 93 95 57 60 89 66 56 48 55
35 42 48 49 46 37 34 34 35 36 42 50 50 45 41 36 34 38 67 84 70 59 62 68 64 64 49 57 58 55 52 55
37 40 47 52 45 37 40 37 38 35 41 50 48 44 45 44 36 33 42 58 79 82 73 63 60 64 61 53 57 52 54 44
41 42 47 48 50 44 45 45 38 44 40 44 45 48 51 45 44 40 40 37 44 67 85 78 71 62 66 60 50 46 54 54
43 44 47 49 50 52 48 43 42 42 41 42 53 52 53 50 47 43 40 36 34 41 46 75 83 77 68 64 62 54 47 58
44 44 48 52 51 49 46 42 44 42 41 48 49 52 54 57 52 48 43 41 47 42 52 54 76 79 76 72 70 64 50 55
40 39 46 52 52 48 44 40 43 40 40 42 49 50 53 56 51 50 47 48 43 42 40 49 53 63 82 80 69 63 59 53
40 44 46 51 50 45 43 46 40 40 40 40 46 51 53 54 52 51 55 51 49 46 44 50 63 58 64 79 82 66 62 48
40 41 46 49 43 42 38 39 40 40 40 41 50 52 56 61 60 61 57 54 53 51 54 48 54 66 53 56 72 81 68 60
40 42 45 43 40 45 43 45 42 42 40 46 50 52 58 64 66 71 69 64 58 58 56 59 53 56 81 85 87 89 85 71
39 39 42 42 41 44 44 46 43 42 41 47 50 56 65 64 71 71 71 74 70 68 72 67 58 51 70 84 90 93 94 82
37 39 40 43 49 42 45 45 45 46 48 49 50 56 64 65 71 75 78 78 80 74 67 76 80 65 61 78 87 79 79 91
38 39 39 41 49 50 58 53 55 54 56 52 54 58 61 62 69 70 78 80 82 81 69 67 71 82 65 72 79 70 72 76
40 40 38 44 49 56 58 60 56 54 57 60 59 59 62 62 70 76 78 79 81 82 83 76 65 73 74 67 78 86 81 87
41 40 37 44 50 57 61 63 63 65 64 65 63 64 64 67 72 78 81 82 83 82 82 82 75 71 70 74 78 87 89 86
42 38 38 44 52 58 60 62 64 70 70 71 70 68 72 77 81 84 85 84 84 84 84 83 77 74 71 70 77 70 62 73
50 41 39 42 49 58 60 62 65 67 72 75 76 77 81 84 86 86 85 85 85 86 87 84 80 82 78 75 76 75 70 66

GFSFLT2_sfc_rhum_153.txt.gz
RH
69 68 62 65 68 67 71 68 72 69 66 69 66 71 71 72 70 76 75 86 90 88 88 90 91 92 94 94 93 92 96 89
68 70 69 66 66 63 67 66 66 66 67 63 63 65 66 66 68 67 69 73 85 90 88 90 91 92 94 95 94 94 97 93
69 71 70 69 58 58 62 61 61 60 68 62 69 73 65 64 66 71 70 70 75 90 91 90 91 91 93 94 94 95 94 90
65 72 76 70 53 72 69 59 66 65 63 65 79 70 67 60 65 69 69 70 69 71 88 93 92 89 86 96 92 91 88 83
63 68 73 77 74 72 76 69 72 71 66 71 78 70 70 71 68 66 67 63 60 62 60 83 92 85 83 88 90 90 86 81
62 66 71 75 76 78 76 72 71 63 68 69 76 78 78 74 70 69 68 67 65 64 68 73 74 86 89 83 89 91 92 93
64 67 76 72 72 77 76 76 75 73 69 69 71 67 71 77 76 70 70 66 66 65 64 65 72 71 68 82 84 89 91 78
65 70 73 70 74 72 74 71 72 65 70 64 68 73 70 69 70 68 69 69 69 68 65 65 65 68 72 69 81 81 86 86
60 63 70 70 73 72 71 72 65 72 64 70 69 66 70 70 72 72 72 71 71 69 68 67 68 62 68 69 77 82 79 81
61 56 66 68 72 71 67 70 71 68 69 70 65 64 66 70 72 72 72 67 69 71 72 71 72 70 70 63 68 69 80 75
59 63 66 67 70 68 69 69 65 71 65 62 62 67 66 67 68 69 67 68 68 72 71 75 80 75 70 69 66 77 86 77
56 60 64 66 71 71 71 71 72 67 63 60 62 68 66 70 68 66 65 69 72 68 64 68 74 75 66 69 73 65 70 82
56 58 64 68 71 74 69 73 69 69 60 62 65 66 69 68 70 70 72 77 79 78 77 76 71 71 80 76 76 74 74 72
56 53 64 69 72 74 77 74 73 71 66 65 66 65 68 63 68 71 72 78 79 78 81 86 80 66 75 81 91 84 76 72
55 54 65 70 70 71 73 74 73 71 70 68 67 66 67 68 66 70 73 75 82 80 82 84 90 81 69 80 94 98 90 88
58 54 61 65 71 77 81 82 81 77 72 66 67 66 68 69 70 72 75 78 81 81 77 83 86 90 84 70 74 78 92 90
62 54 61 66 74 78 83 82 74 66 70 68 67 67 69 68 72 74 78 83 82 81 82 84 84 88 86 86 82 81 81 94
65 54 55 61 74 79 81 79 69 74 72 75 74 72 75 72 72 76 78 81 84 83 82 85 86 86 87 86 87 87 82 89
62 56 58 62 70 80 80 81 69 74 75 78 79 81 81 80 77 81 83 80 82 82 85 87 88 94 93 90 84 82 79 80
77 62 65 65 70 76 80 79 78 76 74 78 82 85 82 82 81 81 83 79 81 81 85 88 87 92 92 93 90 88 83 83

GFSFLT2_sfc_rhum_156.txt.gz
RH
74 73 64 64 67 65 69 63 61 66 62 63 63 64 68 66 67 67 69 71 74 78 85 91 90 92 94 96 96 94 93 94
73 73 72 73 72 63 63 61 65 62 61 63 67 65 64 64 67 67 68 68 69 71 74 81 91 92 93 94 97 95 95 96
74 74 72 76 67 63 69 65 63 62 64 66 72 70 71 67 66 66 68 67 68 68 69 75 82 93 93 94 96 98 97 94
73 76 78 76 59 77 78 67 72 69 70 72 76 76 69 62 67 66 68 66 67 66 66 68 67 68 86 94 95 94 98 92
71 73 77 80 80 80 82 83 81 78 72 74 78 72 72 72 72 71 72 67 67 66 66 73 72 71 63 74 92 95 92 89
70 74 74 78 81 82 82 80 74 69 74 72 74 76 71 71 71 70 71 74 74 74 74 72 75 73 74 75 71 87 93 95
74 73 74 74 76 79 79 79 74 78 76 72 73 72 73 72 70 71 72 72 72 71 70 70 74 73 73 71 75 76 88 95
70 70 70 72 74 73 78 78 76 71 70 71 70 75 75 75 76 73 73 73 68 69 69 71 72 70 71 73 67 72 73 91
65 66 69 75 73 72 73 70 69 70 70 68 69 73 71 72 74 73 70 70 69 70 71 72 72 69 76 72 70 65 65 68
67 58 69 73 73 75 70 70 72 70 67 68 71 69 70 73 73 74 73 70 70 67 71 72 76 78 75 73 69 65 69 68
64 68 71 71 74 76 75 76 72 69 68 68 68 70 71 73 75 75 75 75 73 73 71 68 67 69 72 68 68 73 77 62
59 68 70 73 78 79 78 79 78 69 69 68 69 71 70 74 73 74 73 76 77 77 74 73 78 67 62 67 74 70 67 82
59 70 74 76 80 82 83 83 78 74 70 69 70 71 72 73 75 72 74 77 76 76 77 80 79 76 81 72 72 68 74 70
59 69 76 76 80 83 83 85 82 80 78 73 72 71 73 69 74 73 76 77 77 77 78 86 83 76 89 87 93 85 86 85
61 69 78 77 77 79 81 82 82 81 76 73 71 68 72 74 74 73 75 77 83 81 80 84 91 82 80 92 92 92 79 90
63 66 74 74 79 82 87 93 94 74 74 73 69 72 71 74 76 73 76 79 82 83 76 86 87 91 83 76 84 90 92 87
64 62 65 80 81 83 89 89 84 70 69 71 75 74 74 73 77 74 76 81 81 82 86 88 88 91 90 88 85 84 84 93
63 64 65 76 81 83 87 89 84 80 70 74 78 76 78 76 77 78 78 77 82 83 85 86 89 91 90 89 92 94 87 90
61 68 69 74 83 84 85 86 88 86 74 83 79 85 83 82 81 85 82 79 78 81 86 87 91 96 94 92 89 89 87 88
72 72 71 75 79 82 84 84 89 90 89 90 89 90 85 82 82 82 83 78 79 80 84 86 84 92 92 91 91 88 90 92

GFSFLT2_sfc_rhum_159.txt.gz
RH
73 74 70 68 68 67 67 66 63 63 65 65 64 66 66 65 67 68 69 69 71 70 71 72 74 88 93 95 98 97 96 96
71 73 76 77 75 66 65 62 64 63 65 65 65 67 66 66 68 69 69 68 70 68 68 70 72 75 88 95 95 98 98 95
73 74 76 78 71 69 73 64 65 67 66 66 75 76 76 73 69 68 69 69 70 71 71 71 71 69 69 75 93 98 98 95
75 77 76 76 61 79 81 69 76 76 73 77 80 81 70 65 68 66 69 70 70 69 70 71 71 70 68 68 74 84 98 97
76 76 80 79 81 81 83 83 82 79 75 80 80 72 73 71 72 72 72 70 66 66 66 68 73 77 74 73 72 78 81 95
74 73 74 76 78 81 80 79 76 76 77 74 77 78 75 74 74 72 72 75 71 69 71 69 73 73 74 76 78 83 82 86
71 70 74 73 75 79 79 79 77 80 72 72 79 76 75 74 72 72 72 71 71 72 72 72 72 71 70 70 76 78 82 85
70 73 75 72 77 79 82 79 82 76 74 75 75 76 78 76 75 74 74 73 73 74 74 75 78 75 73 75 70 72 71 80
71 74 75 77 79 79 81 79 76 76 74 74 74 74 77 77 79 77 74 75 76 76 72 72 72 70 75 73 70 65 64 68
70 62 75 79 80 83 78 81 77 74 75 74 74 73 74 78 80 76 75 75 75 78 77 77 77 74 72 72 73 68 64 64
73 74 77 79 79 81 82 82 75 77 75 74 73 75 75 78 81 76 74 76 78 78 80 82 82 79 71 65 68 71 73 62
73 76 77 77 80 82 82 80 82 79 76 74 74 76 75 78 82 75 76 79 77 80 76 73 76 81 73 72 72 70 73 77
74 77 79 78 82 87 89 92 86 81 77 75 76 76 77 76 79 77 78 74 74 76 77 79 80 76 83 75 74 72 76 74
78 79 80 82 86 89 89 90 88 86 84 80 78 76 79 73 80 78 76 76 75 78 80 85 81 77 91 88 88 85 73 67
79 81 83 82 81 83 86 87 88 86 83 80 79 77 79 78 79 77 75 74 81 80 81 85 93 82 80 93 94 86 85 83
76 79 80 78 82 85 90 95 96 89 89 82 82 76 78 77 80 79 78 78 80 83 78 88 92 94 85 78 87 92 96 90
68 76 82 82 83 87 94 93 91 86 84 82 74 76 79 77 82 81 81 78 78 81 85 87 88 92 90 89 89 87 88 96
73 74 83 83 83 87 92 94 90 92 87 90 78 79 83 80 81 83 81 78 78 81 84 83 89 91 89 86 91 96 94 95
70 74 80 83 85 87 88 92 93 95 96 97 96 92 86 86 79 86 83 80 78 80 81 84 88 94 94 92 83 87 91 93
74 74 79 81 84 88 88 90 96 94 94 95 96 91 89 87 77 82 84 81 80 80 81 82 82 88 89 90 91 86 88 90

GFSFLT2_sfc_rhum_162.txt.gz
RH
77 78 68 73 68 65 65 65 66 66 66 67 68 70 69 69 70 70 70 71 71 72 72 73 73 73 73 82 92 95 97 95
77 78 78 78 80 65 65 64 65 66 67 68 67 72 69 68 68 69 69 72 71 70 70 71 72 71 70 72 78 94 97 96
78 77 79 79 73 66 70 66 69 72 72 70 77 76 74 70 67 67 68 69 68 68 68 68 68 70 70 70 72 74 83 95
78 78 78 77 62 79 76 70 76 77 76 76 79 77 71 66 69 67 69 69 69 68 68 67 66 68 71 70 75 76 84 79
78 78 79 79 80 79 80 76 80 79 75 81 82 74 76 75 74 74 75 71 69 67 69 67 71 72 70 71 73 79 78 74
75 75 73 77 80 82 85 82 83 77 78 82 78 80 77 76 75 75 76 75 75 75 76 73 75 75 74 74 74 80 80 82
78 77 79 78 79 83 83 87 84 82 80 78 79 82 82 79 78 78 77 75 78 79 78 75 75 75 74 73 76 77 78 78
78 77 79 77 83 84 88 87 85 83 81 79 79 83 84 82 83 78 76 75 76 78 79 78 77 74 73 71 71 71 70 75
76 79 79 80 84 84 88 81 79 84 80 81 79 79 81 85 86 78 75 76 77 76 76 76 78 73 75 70 69 68 68 70
74 67 80 81 84 87 82 82 85 86 84 84 80 78 78 83 86 79 78 78 78 80 80 76 72 71 77 76 71 68 66 67
78 79 80 82 82 86 87 84 86 85 84 83 80 79 78 82 87 80 79 80 77 79 73 74 78 76 72 67 70 74 72 63
79 79 78 78 85 86 88 87 88 87 84 80 80 81 80 81 83 80 80 74 72 72 74 73 78 78 71 73 70 70 70 74
79 78 80 80 83 88 92 94 91 88 85 80 80 82 80 80 84 81 78 77 73 73 75 78 78 76 83 80 75 76 78 76
82 80 82 82 87 92 93 94 90 85 84 83 82 82 81 74 84 84 76 79 77 76 79 82 81 80 92 89 86 81 68 67
82 83 82 81 79 81 82 84 86 86 87 83 85 81 80 82 84 84 78 78 81 80 80 86 94 82 78 96 95 90 87 82
82 75 75 74 78 84 88 94 95 92 92 88 86 82 81 81 84 80 80 79 79 82 77 84 89 91 84 76 86 93 97 90
76 78 78 78 82 86 91 94 95 91 91 93 86 85 81 81 79 82 78 80 78 83 81 84 86 90 95 90 86 84 86 97
75 82 83 81 80 86 91 93 92 94 96 96 94 90 85 85 71 82 80 81 80 85 78 80 84 88 90 85 92 97 95 97
75 83 84 84 84 85 89 91 91 95 97 96 94 88 87 90 81 88 84 85 83 82 80 82 82 90 89 87 83 89 89 90
76 78 80 81 78 79 85 89 93 92 93 93 93 93 88 86 85 84 80 82 82 81 82 80 77 86 84 87 86 84 87 91